Location: Unspecified
(0.0000°N, 0.0000°E)
Time: 08:39:02
(UTC+02:00)

Delta 168 - Visible Passes

Search period start: 30 September 2016 00:00
Search period end: 10 October 2016 00:00
Orbit: 394 x 2070 km, 25.3° (Epoch: 29 September)

Date Brightness Start Highest point End Pass type
(mag) Time Alt. Az. Time Alt. Az. Time Alt. Az.
30 Sep 7.2 03:26:28 18° ESE 03:26:28 18° ESE 03:28:57 10° ESE visible
30 Sep 6.1 05:16:31 41° SSW 05:16:31 41° SSW 05:27:38 10° SE visible
30 Sep 6.8 07:08:25 10° WSW 07:17:13 21° SSW 07:25:03 10° SSE visible
01 Oct 7.3 03:16:54 15° ESE 03:16:54 15° ESE 03:18:29 10° ESE visible
01 Oct 6.2 05:06:57 37° SSW 05:06:57 37° SSW 05:17:16 10° SE visible
01 Oct 6.8 06:58:28 10° WSW 07:07:09 21° SSW 07:15:04 10° SSE visible
02 Oct 7.5 03:07:17 12° SE 03:07:17 12° SE 03:07:57 10° SE visible
02 Oct 6.3 04:57:19 34° S 04:57:19 34° S 05:06:51 10° SE visible
02 Oct 6.9 06:48:31 10° SW 06:57:07 20° SSW 07:05:04 10° SSE visible
03 Oct 6.5 04:47:38 31° S 04:47:38 31° S 04:56:23 10° SE visible
03 Oct 6.9 06:38:34 10° SW 06:47:03 20° S 06:55:03 10° SSE visible
04 Oct 6.6 04:37:56 28° S 04:37:56 28° S 04:45:51 10° SE visible
04 Oct 7.0 06:28:38 10° SW 06:37:00 20° S 06:45:02 10° SE visible
05 Oct 6.7 04:28:12 25° S 04:28:12 25° S 04:35:18 10° SE visible
05 Oct 7.0 06:18:40 10° SW 06:26:57 19° S 06:35:01 10° SE visible
06 Oct 6.9 04:18:26 23° S 04:18:26 23° S 04:24:42 10° SE visible
06 Oct 7.1 06:08:43 10° SW 06:16:53 19° S 06:25:00 10° SE visible
07 Oct 7.0 04:08:41 20° SSE 04:08:41 20° SSE 04:14:03 10° SE visible
07 Oct 7.1 05:58:44 10° SW 06:06:49 19° S 06:14:58 10° SE visible
08 Oct 7.1 03:58:57 18° SSE 03:58:57 18° SSE 04:03:23 10° SE visible
08 Oct 7.1 05:48:58 10° SW 05:56:45 19° S 06:04:57 10° SE visible
09 Oct 7.2 03:49:13 16° SSE 03:49:13 16° SSE 03:52:42 10° SE visible
09 Oct 7.0 05:39:15 11° SSW 05:46:39 19° S 05:54:55 10° SE visible
09 Oct 5.4 21:35:09 10° NNW 21:35:22 11° NNW 21:35:22 11° NNW visible
